• In Deutschland
  • Länderverzeichnis
  • Für 7 Tage
  • Wassertemperatur
  • Satellitenkarten
  • Wetterkarte
  • Widgets
  • user-avatar
    Anmelden

    Stündliche Wetter Podlozhe

    Heute, 23 Juni, Samstag

    Zeit Temperatur Niederschläge Wind Luftdruck Luftfeuchtigkeit
    00:00 +10°C° 0 mm 4 m/S 751 mmHg 83%
    01:00 +8°C° 0 mm 4 m/S 752 mmHg 87%
    02:00 +8°C° 0 mm 2 m/S 752 mmHg 94%
    03:00 +9°C° 0 mm 3 m/S 752 mmHg 91%
    04:00 +9°C° 0 mm 3 m/S 752 mmHg 89%
    05:00 +10°C° 0 mm 3 m/S 752 mmHg 86%
    06:00 +11°C° 0 mm 3 m/S 753 mmHg 78%
    07:00 +13°C° 0 mm 3 m/S 753 mmHg 70%
    08:00 +14°C° 0 mm 3 m/S 753 mmHg 61%
    09:00 +17°C° 0 mm 3 m/S 753 mmHg 56%
    10:00 +18°C° 0 mm 3 m/S 753 mmHg 50%
    11:00 +19°C° 0 mm 3 m/S 753 mmHg 45%
    12:00 +19°C° 0 mm 3 m/S 753 mmHg 44%
    13:00 +20°C° 0 mm 3 m/S 753 mmHg 43%
    14:00 +20°C° 0 mm 3 m/S 753 mmHg 44%
    15:00 +20°C° 0 mm 2 m/S 753 mmHg 46%
    16:00 +20°C° 0 mm 2 m/S 753 mmHg 48%
    17:00 +20°C° 0 mm 2 m/S 753 mmHg 50%
    18:00 +18°C° 0 mm 2 m/S 753 mmHg 57%
    19:00 +18°C° 0 mm 1 m/S 753 mmHg 65%
    20:00 +16°C° 0 mm 1 m/S 753 mmHg 72%
    21:00 +15°C° 0 mm 1 m/S 752 mmHg 75%
    22:00 +14°C° 0 mm 1 m/S 752 mmHg 78%
    23:00 +12°C° 0 mm 1 m/S 752 mmHg 81%

    Morgen, 24 Juni, Sonntag

    Zeit Temperatur Niederschläge Wind Luftdruck Luftfeuchtigkeit
    00:00 +12°C° 0 mm 1 m/S 752 mmHg 80%
    01:00 +13°C° 0 mm 2 m/S 752 mmHg 79%
    02:00 +13°C° 0 mm 2 m/S 752 mmHg 78%
    03:00 +12°C° 0 mm 3 m/S 752 mmHg 77%
    04:00 +12°C° 0 mm 3 m/S 751 mmHg 76%
    05:00 +12°C° 0 mm 3 m/S 751 mmHg 76%
    06:00 +12°C° 0,1 mm 3 m/S 751 mmHg 75%
    07:00 +13°C° 0,1 mm 3 m/S 751 mmHg 75%
    08:00 +13°C° 0,1 mm 3 m/S 750 mmHg 75%
    09:00 +14°C° 0 mm 4 m/S 750 mmHg 73%
    10:00 +14°C° 0 mm 4 m/S 750 mmHg 72%
    11:00 +15°C° 0 mm 4 m/S 749 mmHg 70%
    12:00 +15°C° 0,1 mm 5 m/S 749 mmHg 68%
    13:00 +16°C° 0,1 mm 5 m/S 749 mmHg 66%
    14:00 +17°C° 0,1 mm 6 m/S 748 mmHg 64%
    15:00 +16°C° 0,7 mm 5 m/S 748 mmHg 72%
    16:00 +15°C° 0,7 mm 5 m/S 747 mmHg 79%
    17:00 +14°C° 0,7 mm 4 m/S 747 mmHg 87%
    18:00 +14°C° 0,7 mm 4 m/S 747 mmHg 90%
    19:00 +13°C° 0,7 mm 4 m/S 747 mmHg 93%
    20:00 +13°C° 0,7 mm 4 m/S 747 mmHg 96%
    21:00 +13°C° 0,1 mm 4 m/S 747 mmHg 96%
    22:00 +12°C° 0,1 mm 4 m/S 747 mmHg 96%
    23:00 +11°C° 0,1 mm 3 m/S 747 mmHg 96%

    übermorgen, 25 Juni, Montag

    Zeit Temperatur Niederschläge Wind Luftdruck Luftfeuchtigkeit
    00:00 +11°C° 0 mm 4 m/S 747 mmHg 96%
    01:00 +11°C° 0 mm 4 m/S 748 mmHg 96%
    02:00 +10°C° 0 mm 4 m/S 748 mmHg 95%
    03:00 +10°C° 0,1 mm 4 m/S 748 mmHg 94%
    04:00 +9°C° 0,1 mm 5 m/S 749 mmHg 94%
    05:00 +9°C° 0,1 mm 5 m/S 749 mmHg 93%
    06:00 +9°C° 0 mm 5 m/S 750 mmHg 91%
    07:00 +9°C° 0 mm 5 m/S 750 mmHg 89%
    08:00 +9°C° 0 mm 5 m/S 751 mmHg 88%
    09:00 +10°C° 0 mm 5 m/S 751 mmHg 82%
    10:00 +12°C° 0 mm 5 m/S 752 mmHg 76%
    11:00 +13°C° 0 mm 5 m/S 752 mmHg 71%
    12:00 +15°C° 0 mm 5 m/S 753 mmHg 64%
    13:00 +18°C° 0 mm 4 m/S 753 mmHg 57%
    14:00 +19°C° 0 mm 4 m/S 753 mmHg 51%
    15:00 +19°C° 0,1 mm 4 m/S 754 mmHg 56%
    16:00 +19°C° 0,1 mm 3 m/S 754 mmHg 60%
    17:00 +18°C° 0,1 mm 3 m/S 754 mmHg 65%
    18:00 +17°C° 0,1 mm 2 m/S 755 mmHg 72%
    19:00 +16°C° 0,1 mm 2 m/S 755 mmHg 78%
    20:00 +15°C° 0,1 mm 2 m/S 755 mmHg 84%
    21:00 +14°C° 0 mm 2 m/S 755 mmHg 88%
    22:00 +13°C° 0 mm 2 m/S 756 mmHg 91%
    23:00 +12°C° 0 mm 1 m/S 756 mmHg 95%

    26 Juni, Dienstag

    Zeit Temperatur Niederschläge Wind Luftdruck Luftfeuchtigkeit
    00:00 +11°C° 0 mm 1 m/S 756 mmHg 95%
    01:00 +10°C° 0 mm 2 m/S 757 mmHg 96%
    02:00 +10°C° 0 mm 2 m/S 757 mmHg 97%
    03:00 +10°C° 0 mm 2 m/S 757 mmHg 96%
    04:00 +10°C° 0 mm 2 m/S 758 mmHg 95%
    05:00 +12°C° 0 mm 2 m/S 758 mmHg 95%
    06:00 +13°C° 0 mm 2 m/S 758 mmHg 88%
    07:00 +15°C° 0 mm 2 m/S 758 mmHg 81%
    08:00 +17°C° 0 mm 2 m/S 759 mmHg 74%
    09:00 +18°C° 0,1 mm 2 m/S 759 mmHg 70%
    10:00 +19°C° 0,1 mm 2 m/S 759 mmHg 66%
    11:00 +20°C° 0,1 mm 2 m/S 759 mmHg 62%
    12:00 +20°C° 0,4 mm 2 m/S 760 mmHg 63%
    13:00 +20°C° 0,4 mm 2 m/S 760 mmHg 64%
    14:00 +20°C° 0,4 mm 2 m/S 760 mmHg 64%
    15:00 +22°C° 0,2 mm 1 m/S 760 mmHg 62%
    16:00 +22°C° 0,2 mm 1 m/S 760 mmHg 60%
    17:00 +22°C° 0,2 mm 1 m/S 760 mmHg 58%
    18:00 +21°C° 0,1 mm 1 m/S 760 mmHg 65%
    19:00 +20°C° 0,1 mm 1 m/S 760 mmHg 71%
    20:00 +19°C° 0,1 mm 1 m/S 761 mmHg 78%
    21:00 +16°C° 0 mm 1 m/S 761 mmHg 81%
    22:00 +15°C° 0 mm 1 m/S 761 mmHg 84%
    23:00 +14°C° 0 mm 1 m/S 761 mmHg 87%

    27 Juni, Mittwoch

    Zeit Temperatur Niederschläge Wind Luftdruck Luftfeuchtigkeit
    00:00 +13°C° 0 mm 1 m/S 762 mmHg 88%
    01:00 +13°C° 0 mm 1 m/S 762 mmHg 89%
    02:00 +13°C° 0 mm 1 m/S 762 mmHg 91%
    03:00 +13°C° 0 mm 1 m/S 762 mmHg 90%
    04:00 +14°C° 0 mm 1 m/S 762 mmHg 89%
    05:00 +14°C° 0 mm 1 m/S 763 mmHg 88%
    06:00 +16°C° 0 mm 1 m/S 763 mmHg 80%
    07:00 +19°C° 0 mm 1 m/S 763 mmHg 72%
    08:00 +21°C° 0 mm 1 m/S 763 mmHg 65%
    09:00 +23°C° 0 mm 1 m/S 763 mmHg 59%
    10:00 +24°C° 0 mm 1 m/S 764 mmHg 53%
    11:00 +26°C° 0 mm 1 m/S 764 mmHg 47%
    12:00 +26°C° 0 mm 1 m/S 764 mmHg 48%
    13:00 +26°C° 0 mm 1 m/S 763 mmHg 49%
    14:00 +26°C° 0 mm 1 m/S 763 mmHg 49%
    15:00 +26°C° 0 mm 1 m/S 763 mmHg 49%
    16:00 +26°C° 0 mm 2 m/S 763 mmHg 49%
    17:00 +26°C° 0 mm 2 m/S 763 mmHg 49%
    18:00 +24°C° 0 mm 2 m/S 763 mmHg 56%
    19:00 +23°C° 0 mm 2 m/S 763 mmHg 63%
    20:00 +21°C° 0 mm 2 m/S 764 mmHg 70%
    21:00 +19°C° 0 mm 2 m/S 764 mmHg 72%
    22:00 +18°C° 0 mm 2 m/S 764 mmHg 73%
    23:00 +16°C° 0 mm 2 m/S 764 mmHg 75%

    28 Juni, Donnerstag

    Zeit Temperatur Niederschläge Wind Luftdruck Luftfeuchtigkeit
    00:00 +16°C° 0 mm 2 m/S 764 mmHg 74%
    01:00 +16°C° 0 mm 2 m/S 764 mmHg 73%
    02:00 +15°C° 0 mm 2 m/S 764 mmHg 72%
    03:00 +15°C° 0 mm 2 m/S 764 mmHg 73%
    04:00 +16°C° 0 mm 2 m/S 764 mmHg 73%
    05:00 +16°C° 0 mm 2 m/S 764 mmHg 73%
    06:00 +18°C° 0 mm 2 m/S 764 mmHg 68%
    07:00 +20°C° 0 mm 2 m/S 764 mmHg 63%
    08:00 +23°C° 0 mm 2 m/S 764 mmHg 58%
    09:00 +25°C° 0 mm 3 m/S 764 mmHg 54%
    10:00 +26°C° 0 mm 3 m/S 763 mmHg 49%
    11:00 +28°C° 0 mm 3 m/S 763 mmHg 44%
    12:00 +28°C° 0 mm 3 m/S 763 mmHg 42%
    13:00 +29°C° 0 mm 3 m/S 762 mmHg 41%
    14:00 +29°C° 0 mm 3 m/S 762 mmHg 40%
    15:00 +29°C° 0 mm 3 m/S 761 mmHg 41%
    16:00 +29°C° 0 mm 3 m/S 761 mmHg 42%
    17:00 +28°C° 0 mm 3 m/S 761 mmHg 44%
    18:00 +27°C° 0 mm 3 m/S 760 mmHg 51%
    19:00 +25°C° 0 mm 3 m/S 760 mmHg 58%
    20:00 +22°C° 0 mm 3 m/S 760 mmHg 66%
    21:00 +21°C° 0 mm 3 m/S 759 mmHg 66%
    22:00 +21°C° 0 mm 3 m/S 759 mmHg 67%
    23:00 +20°C° 0 mm 3 m/S 759 mmHg 68%
    Mehr zeigen